Broomfield, CO

7:28 PM MDT on October 16, 2017 (GMT -0600)
Jeffco

Weather History for KBJC - January, 2013

Change the Weather History Date:

Monday, January 7, 2013

  Actual Average Record
Temperature  
Mean Temperature 40 °F -  
Max Temperature 53 °F 44 °F 68 °F (2006)
Min Temperature 28 °F 23 °F 7 °F (1991)
Degree Days  
Heating Degree Days 24    
Moisture  
Dew Point 3 °F    
Average Humidity 27    
Maximum Humidity 64    
Minimum Humidity 8    
Precipitation  
Precipitation 0.00 in - - ()
Sea Level Pressure  
Sea Level Pressure 29.90 in    
Wind  
Wind Speed 9 mph (West)    
Max Wind Speed 22 mph    
Max Gust Speed 28 mph    
Visibility 11 miles    
Events      
Averages and records for this station are not official NWS values.
T = Trace of Precipitation, MM = Missing Value Source: NWS Daily Summary

Daily Weather History Graph

Daily Weather History Graph

Search for Another Location

Airport or City:

Trip Planner

Search our weather history database for the weather conditions in past years. The results will help you decide how hot, cold, wet, or windy it might be!

Date:

Astronomy

Jan. 07, 2013 Rise Set
Actual Time 7:22 AM MST 4:52 PM MST
Civil Twilight 6:52 AM MST 5:22 PM MST
Nautical Twilight 6:18 AM MST 5:55 PM MST
Astronomical Twilight 5:45 AM MST 6:28 PM MST
Moon 2:49 AM MST (1/7) 1:04 PM MST (1/7)
Length of Visible Light 10h 30m
Length of Day
9h 29m
Waning Crescent, 22% of the Moon is Illuminated
Jan 7
Waning Crescent
Jan 11
New
Jan 18
First Quarter
Jan 26
Full
Feb 3
Last Quarter

Hourly Weather History & Observations

Time (MST) Temp. Windchill Dew Point Humidity Pressure Visibility Wind Dir Wind Speed Gust Speed Precip Events Conditions
12:16 AM 41.0 °F 36.4 °F -0.4 °F 18% 29.92 in 10.0 mi WSW 6.9 mph - N/A   Clear
12:36 AM 46.4 °F 38.5 °F -5.8 °F 11% 29.91 in 10.0 mi WNW 21.9 mph 27.6 mph N/A   Clear
12:56 AM 46.4 °F 38.5 °F -5.8 °F 11% 29.91 in 10.0 mi WNW 21.9 mph - N/A   Clear
1:16 AM 46.4 °F 39.0 °F -5.8 °F 11% 29.91 in 10.0 mi WNW 19.6 mph - N/A   Clear
1:36 AM 44.6 °F 38.4 °F -5.8 °F 12% 29.92 in 10.0 mi West 12.7 mph - N/A   Clear
1:56 AM 41.0 °F 34.7 °F -2.2 °F 16% 29.92 in 10.0 mi WSW 10.4 mph - N/A   Clear
2:16 AM 41.0 °F 37.1 °F -4.0 °F 15% 29.92 in 10.0 mi West 5.8 mph - N/A   Clear
2:36 AM 37.4 °F 30.8 °F -2.2 °F 19% 29.92 in 10.0 mi WSW 9.2 mph - N/A   Clear
2:56 AM 37.4 °F 31.4 °F -0.4 °F 20% 29.92 in 10.0 mi WSW 8.1 mph - N/A   Clear
3:16 AM 35.6 °F 31.7 °F -0.4 °F 22% 29.92 in 10.0 mi SW 4.6 mph - N/A   Clear
3:36 AM 39.2 °F 37.0 °F -0.4 °F 19% 29.91 in 10.0 mi SW 3.5 mph - N/A   Clear
3:56 AM 37.4 °F 33.8 °F -0.4 °F 20% 29.91 in 10.0 mi SW 4.6 mph - N/A   Clear
4:16 AM 37.4 °F 32.1 °F -2.2 °F 19% 29.90 in 10.0 mi WSW 6.9 mph - N/A   Clear
4:36 AM 35.6 °F 28.0 °F -0.4 °F 22% 29.91 in 10.0 mi NNW 10.4 mph - N/A   Clear
4:56 AM 32.0 °F 21.6 °F 6.8 °F 35% 29.92 in 10.0 mi NNW 15.0 mph - N/A   Clear
5:45 AM 28.4 °F 20.4 °F 6.8 °F 40% 29.95 in 30.0 mi NNW 8.1 mph - N/A   Scattered Clouds
6:45 AM 33.8 °F 24.3 °F 1.4 °F 25% 29.97 in 30.0 mi NW 13.8 mph - N/A   Mostly Cloudy
7:50 AM 39.2 °F 32.5 °F -2.2 °F 17% 29.99 in 60.0 mi NNW 10.4 mph - N/A   Mostly Cloudy
8:50 AM 33.8 °F 30.8 °F 3.2 °F 28% 30.00 in 60.0 mi Variable 3.5 mph - N/A   Mostly Cloudy
9:47 AM 41.0 °F 38.0 °F 3.2 °F 21% 30.01 in 60.0 mi Variable 4.6 mph - N/A   Scattered Clouds
10:50 AM 48.2 °F - -4.0 °F 11% 29.97 in 50.0 mi South 8.1 mph - N/A   Scattered Clouds
12:50 PM 51.8 °F - -5.8 °F 9% 29.91 in 60.0 mi ENE 4.6 mph - N/A   Mostly Cloudy
1:50 PM 53.6 °F - -5.8 °F 9% 29.89 in 60.0 mi SSE 4.6 mph - N/A   Mostly Cloudy
2:48 PM 53.6 °F - -7.6 °F 8% 29.89 in 60.0 mi ESE 5.8 mph - N/A   Mostly Cloudy
4:47 PM 50.0 °F - -7.6 °F 9% 29.87 in 60.0 mi Calm Calm - N/A   Mostly Cloudy
5:48 PM 44.6 °F 40.7 °F 1.4 °F 17% 29.87 in 30.0 mi WNW 6.9 mph - N/A   Mostly Cloudy
7:50 PM 37.4 °F 30.8 °F 6.8 °F 28% 29.84 in 20.0 mi NW 9.2 mph - N/A   Scattered Clouds
8:53 PM 35.6 °F 27.1 °F 19.4 °F 52% 29.84 in 20.0 mi NW 12.7 mph - N/A   Scattered Clouds
9:45 PM 32.0 °F - 19.4 °F 60% 29.83 in 20.0 mi Calm Calm - N/A   Scattered Clouds
10:16 PM 32.0 °F - 19.4 °F 60% 29.83 in 10.0 mi Calm Calm - N/A   Clear
10:36 PM 32.0 °F - 21.2 °F 64% 29.81 in 10.0 mi Calm Calm - N/A   Clear
10:56 PM 30.2 °F 26.7 °F 17.6 °F 60% 29.81 in 10.0 mi SW 3.5 mph - N/A   Clear
11:16 PM 32.0 °F - 19.4 °F 60% 29.81 in 10.0 mi Calm Calm - N/A   Clear
11:36 PM 32.0 °F 28.7 °F 19.4 °F 60% 29.80 in 10.0 mi WSW 3.5 mph - N/A   Clear
11:56 PM 37.4 °F 32.1 °F 10.4 °F 33% 29.79 in 10.0 mi NW 6.9 mph 16.1 mph N/A   Clear